Location: Unspecified
(0.0000°N, 0.0000°E)
Time: 03:32:45
(UTC+00:00)

STSS DEMO 1 (USA 208) - Visible Passes

Search period start: 15 June 2021 00:00
Search period end: 25 June 2021 00:00
Orbit: 1335 x 1353 km, 58.0° (Epoch: 30 May)

Date Brightness Start Highest point End Pass type
(mag) Time Alt. Az. Time Alt. Az. Time Alt. Az.
15 Jun 4.8 20:09:28 10° NNW 20:17:29 55° ENE 20:17:29 55° ENE visible
15 Jun 6.8 22:08:36 10° WNW 22:10:06 14° W 22:10:06 14° W visible
16 Jun 6.3 18:41:05 10° NNE 18:44:48 13° ENE 18:48:32 10° E visible
16 Jun 4.6 20:33:37 10° NNW 20:41:35 78° W 20:41:35 78° W visible
17 Jun 5.6 19:02:29 10° N 19:09:23 29° ENE 19:13:06 21° E visible
17 Jun 5.5 20:58:38 10° NW 21:05:44 42° WSW 21:05:44 42° WSW visible
18 Jun 4.8 19:25:43 10° NNW 19:33:49 56° ENE 19:37:18 35° ESE visible
18 Jun 6.4 21:24:52 10° WNW 21:29:56 21° WSW 21:29:56 21° WSW visible
19 Jun 4.7 19:49:52 10° NNW 19:58:12 80° WSW 20:01:33 41° SSE visible
20 Jun 5.6 18:18:43 10° N 18:25:38 29° ENE 18:32:32 10° ESE visible
20 Jun 5.5 20:14:52 10° NW 20:22:36 42° WSW 20:25:51 31° SSW visible
21 Jun 4.9 18:41:58 10° NNW 18:50:04 56° ENE 18:57:32 13° SE visible
21 Jun 6.4 20:41:07 10° WNW 20:47:06 22° WSW 20:50:10 18° SSW visible
22 Jun 4.8 19:06:07 10° NNW 19:14:26 80° WSW 19:21:52 14° SSE visible
23 Jun 6.7 05:24:01 10° SSE 05:29:41 20° ESE 05:35:19 10° ENE visible
23 Jun 5.6 19:31:07 10° NW 19:38:51 42° WSW 19:46:13 12° S visible
24 Jun 6.5 19:57:22 10° WNW 20:03:20 22° WSW 20:09:21 10° SSW visible
